Погода в Нылге

Россия / Удмуртская Республика     56°45′33″N   52°22′03″E
темп.,
°C
ветер,
м/с
пор.,
м/с
влажн.,
%
обл.,
%
осадки,
мм/ч
давл.,
гПа
погр.,
м
28 февраля, вс
вс2801:00−12св4895100 0.2 1003332
04:00−14св489498 0.4 1005312
07:00−16св4895100 0.1 1006320
10:00−15ссв479299 0.3 1007393
13:00−13ссв3591100 0.0 1008489
16:00−12с4690100 0.1 1010599
19:00−17с3396100 0.1 101246
22:00−20с349774 0.1 101444
1 марта, пн
пн101:00−22с33970 0.0 101537
04:00−23с23981 0.0 101723
07:00−24с23984 0.0 101921
10:00−19с23923 0.0 1020200
13:00−13сз238583 0.0 1020446
16:00−12зсз238891 0.0 1019453
19:00−17зюз339791 0.0 101822
22:00−19юз359771 0.0 101782
2 марта, вт
вт201:00−16ююз5995100 0.0 1013257
04:00−14ююз61195100 0.1 1009342
07:00−11ююз61294100 1.1 1004489
10:00−9ююз61194100 2.1 1002486
13:00−5ююз61095100 1.4 999523
16:00−2ююз5997100 2.7 997475
19:00−1з5996100 0.7 996459
22:00−1з5998100 1.6 997403
3 марта, ср
ср301:00−7зсз479792 0.4 997111
04:00−9зсз349767 0.4 99838
07:00−6з379795 0.2 998192
10:00−5зсз589396 0.3 1000483
13:00−5зсз578998 0.1 1001742
16:00−5зсз689099 0.3 1002873
19:00−7зсз3993100 0.1 1003337
22:00−10з349780 0.1 100582
4 марта, чт
чт401:00−11з369889 0.0 1004125
04:00−12зюз369790 0.1 1004143
07:00−12юз3797100 0.1 1003136
10:00−9юз479599 0.1 1002292
13:00−6ююз6993100 0.1 1000466
16:00−5ююз81494100 0.6 996693
19:00−4ююз81595100 1.9 991913
22:00−2зюз91695100 3.6 9891050